Time,TemperatureF,DewpointF,PressureIn,WindDirection,WindDirectionDegrees,WindSpeedMPH,WindSpeedGustMPH,Humidity,HourlyPrecipIn,Conditions,Clouds,dailyrainin,SoftwareType,DateUTC
2013-07-14 00:01:00,70.5,69.9,30.28,ESE,113,1.1,1.1,98,0.00,OVC,,0.00,WeatherDisplay:10.37,2013-07-14 04:01:00,
2013-07-14 00:02:00,70.5,69.9,30.28,ESE,119,1.1,0.0,98,0.00,OVC,,0.00,WeatherDisplay:10.37,2013-07-14 04:02:00,
2013-07-14 00:07:00,70.4,69.8,30.27,SE,132,0.0,0.0,98,0.00,OVC,,0.00,WeatherDisplay:10.37,2013-07-14 04:07:00,
2013-07-14 00:12:00,70.4,69.8,30.27,East,91,4.6,4.6,98,0.00,OVC,,0.00,WeatherDisplay:10.37,2013-07-14 04:12:00,
2013-07-14 00:17:00,70.5,69.9,30.27,ESE,103,3.5,3.5,98,0.00,OVC,,0.00,WeatherDisplay:10.37,2013-07-14 04:17:00,
2013-07-14 00:22:00,70.6,70.0,30.27,ESE,108,1.1,1.1,98,0.00,OVC,,0.00,WeatherDisplay:10.37,2013-07-14 04:22:00,
2013-07-14 00:27:00,70.6,70.0,30.27,East,91,5.8,5.8,98,0.00,OVC,,0.00,WeatherDisplay:10.37,2013-07-14 04:27:00,
2013-07-14 00:32:00,70.5,69.9,30.27,East,93,9.2,9.2,98,0.00,OVC,,0.00,WeatherDisplay:10.37,2013-07-14 04:32:00,
2013-07-14 00:37:00,70.6,70.0,30.27,ESE,102,3.5,0.0,98,0.00,OVC,,0.00,WeatherDisplay:10.37,2013-07-14 04:37:00,
2013-07-14 00:42:00,70.6,70.0,30.27,SE,124,3.5,3.5,98,0.00,OVC,,0.00,WeatherDisplay:10.37,2013-07-14 04:42:00,
2013-07-14 00:47:00,70.3,69.7,30.27,ESE,115,0.0,0.0,98,0.00,OVC,,0.00,WeatherDisplay:10.37,2013-07-14 04:47:00,
2013-07-14 00:52:00,70.2,69.6,30.27,ESE,117,0.0,0.0,98,0.00,OVC,,0.00,WeatherDisplay:10.37,2013-07-14 04:52:00,
2013-07-14 00:57:00,70.0,69.4,30.27,SE,125,3.5,3.5,98,0.00,OVC,,0.00,WeatherDisplay:10.37,2013-07-14 04:57:00,
2013-07-14 01:02:00,69.9,69.3,30.27,ESE,107,2.3,0.0,98,0.00,OVC,,0.00,WeatherDisplay:10.37,2013-07-14 05:02:00,
2013-07-14 01:07:00,69.8,69.2,30.27,ESE,105,3.5,3.5,98,0.00,OVC,,0.00,WeatherDisplay:10.37,2013-07-14 05:07:00,
2013-07-14 01:12:00,70.0,69.4,30.27,ESE,107,0.0,0.0,98,0.00,OVC,,0.00,WeatherDisplay:10.37,2013-07-14 05:12:00,
2013-07-14 01:17:00,70.1,69.5,30.27,ESE,107,0.0,0.0,98,0.00,OVC,,0.00,WeatherDisplay:10.37,2013-07-14 05:17:00,
2013-07-14 01:22:00,70.2,69.6,30.27,ESE,107,0.0,0.0,98,0.00,OVC,,0.00,WeatherDisplay:10.37,2013-07-14 05:22:00,
2013-07-14 01:27:00,70.2,69.6,30.26,ESE,107,0.0,0.0,98,0.00,OVC,,0.00,WeatherDisplay:10.37,2013-07-14 05:27:00,
2013-07-14 01:32:00,70.2,69.6,30.26,ESE,107,0.0,0.0,98,0.00,OVC,,0.00,WeatherDisplay:10.37,2013-07-14 05:32:00,
2013-07-14 01:37:00,70.1,69.5,30.26,ESE,107,0.0,0.0,98,0.00,OVC,,0.00,WeatherDisplay:10.37,2013-07-14 05:37:00,
2013-07-14 01:42:00,69.9,69.3,30.26,ESE,109,0.0,0.0,98,0.00,OVC,,0.00,WeatherDisplay:10.37,2013-07-14 05:42:00,
2013-07-14 01:47:00,69.9,69.3,30.26,ESE,111,0.0,0.0,98,0.00,OVC,,0.00,WeatherDisplay:10.37,2013-07-14 05:47:00,
2013-07-14 01:52:00,70.0,69.4,30.26,ESE,111,0.0,0.0,98,0.00,OVC,,0.00,WeatherDisplay:10.37,2013-07-14 05:52:00,
2013-07-14 01:57:00,70.2,69.6,30.26,ESE,111,0.0,0.0,98,0.00,OVC,,0.00,WeatherDisplay:10.37,2013-07-14 05:57:00,
2013-07-14 02:02:00,70.0,69.4,30.26,ESE,112,0.0,0.0,98,0.00,OVC,,0.00,WeatherDisplay:10.37,2013-07-14 06:02:00,
2013-07-14 02:07:00,70.0,69.4,30.26,ESE,115,0.0,0.0,98,0.00,OVC,,0.00,WeatherDisplay:10.37,2013-07-14 06:07:00,
2013-07-14 02:12:00,70.1,69.5,30.26,ESE,115,0.0,0.0,98,0.00,OVC,,0.00,WeatherDisplay:10.37,2013-07-14 06:12:00,
2013-07-14 02:17:00,70.3,69.7,30.26,ESE,115,0.0,0.0,98,0.00,OVC,,0.00,WeatherDisplay:10.37,2013-07-14 06:17:00,
2013-07-14 02:22:00,70.3,69.7,30.26,ESE,117,0.0,0.0,98,0.00,OVC,,0.00,WeatherDisplay:10.37,2013-07-14 06:22:00,
2013-07-14 02:27:00,70.3,69.7,30.26,East,94,5.0,5.0,98,0.00,OVC,,0.00,WeatherDisplay:10.37,2013-07-14 06:27:00,
2013-07-14 02:32:00,70.3,69.7,30.26,East,95,3.5,3.5,98,0.00,OVC,,0.00,WeatherDisplay:10.37,2013-07-14 06:32:00,
2013-07-14 02:37:00,70.3,69.7,30.27,East,96,0.0,0.0,98,0.00,OVC,,0.00,WeatherDisplay:10.37,2013-07-14 06:37:00,
2013-07-14 02:42:00,70.3,69.7,30.26,East,96,0.0,0.0,98,0.00,OVC,,0.00,WeatherDisplay:10.37,2013-07-14 06:42:00,
2013-07-14 02:47:00,70.2,69.6,30.27,East,96,0.0,0.0,98,0.00,OVC,,0.00,WeatherDisplay:10.37,2013-07-14 06:47:00,
2013-07-14 02:52:00,70.2,69.6,30.27,East,96,0.0,0.0,98,0.00,OVC,,0.00,WeatherDisplay:10.37,2013-07-14 06:52:00,
2013-07-14 02:57:00,70.2,69.6,30.27,East,96,0.0,0.0,98,0.00,OVC,,0.00,WeatherDisplay:10.37,2013-07-14 06:57:00,
2013-07-14 03:02:00,70.3,69.7,30.26,East,96,0.0,0.0,98,0.00,OVC,,0.00,WeatherDisplay:10.37,2013-07-14 07:02:00,
2013-07-14 03:07:00,70.3,69.7,30.26,East,96,0.0,0.0,98,0.00,OVC,,0.00,WeatherDisplay:10.37,2013-07-14 07:07:00,
2013-07-14 03:12:00,70.2,69.6,30.26,East,96,0.0,0.0,98,0.00,OVC,,0.00,WeatherDisplay:10.37,2013-07-14 07:12:00,
2013-07-14 03:17:00,70.1,69.5,30.26,East,96,0.0,0.0,98,0.00,OVC,,0.00,WeatherDisplay:10.37,2013-07-14 07:17:00,
2013-07-14 03:22:00,70.1,69.8,30.26,East,96,0.0,0.0,99,0.00,OVC,,0.00,WeatherDisplay:10.37,2013-07-14 07:22:00,
2013-07-14 03:27:00,70.2,69.6,30.26,East,96,0.0,0.0,98,0.00,OVC,,0.00,WeatherDisplay:10.37,2013-07-14 07:27:00,
2013-07-14 03:32:00,70.4,70.1,30.26,East,96,0.0,0.0,99,0.00,OVC,,0.00,WeatherDisplay:10.37,2013-07-14 07:32:00,
2013-07-14 03:37:00,70.6,70.3,30.26,East,96,0.0,0.0,99,0.00,OVC,,0.00,WeatherDisplay:10.37,2013-07-14 07:37:00,
2013-07-14 03:42:00,70.7,70.4,30.26,East,96,0.0,0.0,99,0.00,OVC,,0.00,WeatherDisplay:10.37,2013-07-14 07:42:00,
2013-07-14 03:47:00,70.8,70.5,30.26,East,96,0.0,0.0,99,0.00,OVC,,0.00,WeatherDisplay:10.37,2013-07-14 07:47:00,
2013-07-14 03:52:00,70.9,70.6,30.26,East,96,0.0,0.0,99,0.00,OVC,,0.00,WeatherDisplay:10.37,2013-07-14 07:52:00,
2013-07-14 03:57:00,70.9,70.6,30.26,East,96,0.0,0.0,99,0.00,OVC,,0.00,WeatherDisplay:10.37,2013-07-14 07:57:00,
2013-07-14 04:02:00,71.1,70.8,30.26,East,96,0.0,0.0,99,0.00,OVC,,0.00,WeatherDisplay:10.37,2013-07-14 08:02:00,
2013-07-14 04:07:00,71.0,70.7,30.26,East,96,0.0,0.0,99,0.00,OVC,,0.00,WeatherDisplay:10.37,2013-07-14 08:07:00,
2013-07-14 04:12:00,71.0,70.7,30.26,East,96,0.0,0.0,99,0.00,OVC,,0.00,WeatherDisplay:10.37,2013-07-14 08:12:00,
2013-07-14 04:17:00,71.1,70.8,30.25,East,96,0.0,0.0,99,0.00,OVC,,0.00,WeatherDisplay:10.37,2013-07-14 08:17:00,
2013-07-14 04:22:00,71.0,70.7,30.25,East,96,0.0,0.0,99,0.00,OVC,,0.00,WeatherDisplay:10.37,2013-07-14 08:22:00,
2013-07-14 04:27:00,71.0,70.7,30.25,East,96,0.0,0.0,99,0.00,OVC,,0.00,WeatherDisplay:10.37,2013-07-14 08:27:00,
2013-07-14 04:32:00,71.0,70.7,30.25,East,96,0.0,0.0,99,0.00,OVC,,0.00,WeatherDisplay:10.37,2013-07-14 08:32:00,
2013-07-14 04:37:00,71.1,70.8,30.25,East,96,0.0,0.0,99,0.00,OVC,,0.00,WeatherDisplay:10.37,2013-07-14 08:37:00,
2013-07-14 04:42:00,71.0,70.7,30.25,East,96,0.0,0.0,99,0.00,OVC,,0.00,WeatherDisplay:10.37,2013-07-14 08:42:00,
2013-07-14 04:47:00,71.0,70.7,30.25,East,96,0.0,0.0,99,0.00,OVC,,0.00,WeatherDisplay:10.37,2013-07-14 08:47:00,
2013-07-14 04:52:00,71.1,70.8,30.25,East,96,0.0,0.0,99,0.00,OVC,,0.00,WeatherDisplay:10.37,2013-07-14 08:52:00,
2013-07-14 04:57:00,71.2,70.9,30.25,East,96,2.3,2.3,99,0.00,OVC,,0.00,WeatherDisplay:10.37,2013-07-14 08:57:00,
2013-07-14 05:02:00,71.4,71.1,30.25,NW,315,3.5,0.0,99,0.00,CLR,,0.00,WeatherDisplay:10.37,2013-07-14 09:02:00,
2013-07-14 05:07:00,71.4,71.1,30.25,NW,315,0.0,0.0,99,0.00,CLR,,0.00,WeatherDisplay:10.37,2013-07-14 09:07:00,
2013-07-14 05:12:00,71.4,71.1,30.25,WNW,302,3.5,0.0,99,0.00,CLR,,0.00,WeatherDisplay:10.37,2013-07-14 09:12:00,
2013-07-14 05:17:00,71.5,71.2,30.25,West,270,4.6,4.6,99,0.00,CLR,,0.00,WeatherDisplay:10.37,2013-07-14 09:17:00,
2013-07-14 05:22:00,71.5,71.2,30.25,West,271,5.8,5.8,99,0.00,CLR,,0.00,WeatherDisplay:10.37,2013-07-14 09:22:00,
2013-07-14 05:27:00,71.7,71.4,30.25,WNW,283,6.0,6.0,99,0.00,CLR,,0.00,WeatherDisplay:10.37,2013-07-14 09:27:00,
2013-07-14 05:32:00,71.8,71.5,30.25,WNW,285,5.0,5.0,99,0.00,CLR,,0.00,WeatherDisplay:10.37,2013-07-14 09:32:00,
2013-07-14 05:37:00,72.0,71.7,30.25,West,279,6.9,6.9,99,0.00,CLR,,0.00,WeatherDisplay:10.37,2013-07-14 09:37:00,
2013-07-14 05:42:00,72.1,71.8,30.25,WNW,283,10.4,10.4,99,0.00,CLR,,0.00,WeatherDisplay:10.37,2013-07-14 09:42:00,
2013-07-14 05:47:00,72.2,71.9,30.25,WNW,284,7.0,7.0,99,0.00,CLR,,0.00,WeatherDisplay:10.37,2013-07-14 09:47:00,
2013-07-14 05:52:00,72.3,72.0,30.26,West,276,10.4,10.4,99,0.00,CLR,,0.00,WeatherDisplay:10.37,2013-07-14 09:52:00,
2013-07-14 05:57:00,72.3,72.0,30.25,WNW,293,6.9,6.9,99,0.00,CLR,,0.00,WeatherDisplay:10.37,2013-07-14 09:57:00,
2013-07-14 06:02:00,72.3,72.0,30.25,West,267,9.2,9.2,99,0.00,CLR,,0.00,WeatherDisplay:10.37,2013-07-14 10:02:00,
2013-07-14 06:07:00,72.4,72.1,30.26,West,268,3.5,3.5,99,0.00,CLR,,0.00,WeatherDisplay:10.37,2013-07-14 10:07:00,
2013-07-14 06:12:00,72.5,72.2,30.26,NNW,334,4.6,4.6,99,0.00,CLR,,0.00,WeatherDisplay:10.37,2013-07-14 10:12:00,
2013-07-14 06:17:00,72.5,72.2,30.26,NW,319,3.5,3.5,99,0.00,CLR,,0.00,WeatherDisplay:10.37,2013-07-14 10:17:00,
2013-07-14 06:22:00,72.5,72.2,30.26,NW,305,6.9,6.9,99,0.00,CLR,,0.00,WeatherDisplay:10.37,2013-07-14 10:22:00,
2013-07-14 06:27:00,72.6,72.3,30.26,NW,316,3.5,3.5,99,0.00,CLR,,0.00,WeatherDisplay:10.37,2013-07-14 10:27:00,
2013-07-14 06:32:00,72.6,72.3,30.26,NW,317,4.6,4.6,99,0.00,CLR,,0.00,WeatherDisplay:10.37,2013-07-14 10:32:00,
2013-07-14 06:37:00,72.7,72.4,30.26,WNW,298,4.0,4.0,99,0.00,CLR,,0.00,WeatherDisplay:10.37,2013-07-14 10:37:00,
2013-07-14 06:42:00,72.7,72.4,30.26,WNW,302,5.8,5.8,99,0.00,CLR,,0.00,WeatherDisplay:10.37,2013-07-14 10:42:00,
2013-07-14 06:47:00,72.8,72.5,30.26,WNW,282,3.5,3.5,99,0.00,CLR,,0.00,WeatherDisplay:10.37,2013-07-14 10:47:00,
2013-07-14 06:52:00,72.8,72.5,30.26,West,280,3.5,3.5,99,0.00,CLR,,0.00,WeatherDisplay:10.37,2013-07-14 10:52:00,
2013-07-14 06:57:00,72.9,72.6,30.26,West,278,5.0,5.0,99,0.00,CLR,,0.00,WeatherDisplay:10.37,2013-07-14 10:57:00,
2013-07-14 07:02:00,72.9,72.6,30.26,WNW,288,6.9,6.9,99,0.00,OVC,,0.00,WeatherDisplay:10.37,2013-07-14 11:02:00,
2013-07-14 07:07:00,73.0,72.7,30.26,WNW,299,6.0,6.0,99,0.00,OVC,,0.00,WeatherDisplay:10.37,2013-07-14 11:07:00,
2013-07-14 07:12:00,73.1,72.8,30.26,WNW,291,4.0,4.0,99,0.00,OVC,,0.00,WeatherDisplay:10.37,2013-07-14 11:12:00,
2013-07-14 07:17:00,73.2,72.9,30.27,NNW,327,5.8,5.8,99,0.00,OVC,,0.00,WeatherDisplay:10.37,2013-07-14 11:17:00,
2013-07-14 07:22:00,73.3,73.0,30.27,WNW,302,9.2,9.2,99,0.00,OVC,,0.00,WeatherDisplay:10.37,2013-07-14 11:22:00,
2013-07-14 07:27:00,73.3,73.0,30.27,NW,306,8.1,8.1,99,0.00,OVC,,0.00,WeatherDisplay:10.37,2013-07-14 11:27:00,
2013-07-14 07:32:00,73.5,73.2,30.27,West,279,10.4,10.4,99,0.00,OVC,,0.00,WeatherDisplay:10.37,2013-07-14 11:32:00,
2013-07-14 07:37:00,73.7,73.4,30.27,West,267,9.2,9.2,99,0.00,OVC,,0.00,WeatherDisplay:10.37,2013-07-14 11:37:00,
2013-07-14 07:42:00,73.8,73.5,30.27,WNW,284,10.4,10.4,99,0.00,OVC,,0.00,WeatherDisplay:10.37,2013-07-14 11:42:00,
2013-07-14 07:47:00,73.9,73.6,30.27,WNW,290,6.9,6.9,99,0.00,OVC,,0.00,WeatherDisplay:10.37,2013-07-14 11:47:00,
2013-07-14 07:52:00,74.3,74.0,30.27,West,281,6.9,6.9,99,0.00,OVC,,0.00,WeatherDisplay:10.37,2013-07-14 11:52:00,
2013-07-14 07:57:00,74.6,74.3,30.27,West,273,6.9,6.9,99,0.00,OVC,,0.00,WeatherDisplay:10.37,2013-07-14 11:57:00,
2013-07-14 08:02:00,75.0,74.4,30.27,NW,308,5.0,5.0,98,0.00,BKN,,0.00,WeatherDisplay:10.37,2013-07-14 12:02:00,
2013-07-14 08:07:00,75.3,74.7,30.28,WNW,298,4.0,4.0,98,0.00,BKN,,0.00,WeatherDisplay:10.37,2013-07-14 12:07:00,
2013-07-14 08:12:00,75.7,75.1,30.28,WNW,298,3.5,3.5,98,0.00,BKN,,0.00,WeatherDisplay:10.37,2013-07-14 12:12:00,
2013-07-14 08:17:00,76.2,75.3,30.28,NNW,336,10.4,10.4,97,0.00,BKN,,0.00,WeatherDisplay:10.37,2013-07-14 12:17:00,
2013-07-14 08:22:00,76.3,75.4,30.28,NNW,346,5.8,5.8,97,0.00,BKN,,0.00,WeatherDisplay:10.37,2013-07-14 12:22:00,
2013-07-14 08:27:00,76.8,75.9,30.28,NNW,346,1.1,1.1,97,0.00,BKN,,0.00,WeatherDisplay:10.37,2013-07-14 12:27:00,
2013-07-14 08:32:00,77.4,75.9,30.28,NNW,344,3.5,3.5,95,0.00,BKN,,0.00,WeatherDisplay:10.37,2013-07-14 12:32:00,
2013-07-14 08:37:00,77.2,75.7,30.28,NNW,344,2.3,2.3,95,0.00,BKN,,0.00,WeatherDisplay:10.37,2013-07-14 12:37:00,
2013-07-14 08:42:00,77.3,75.4,30.28,NNW,344,1.1,0.0,94,0.00,BKN,,0.00,WeatherDisplay:10.37,2013-07-14 12:42:00,
2013-07-14 08:47:00,76.6,74.1,30.29,NNW,331,3.5,3.5,92,0.00,BKN,,0.00,WeatherDisplay:10.37,2013-07-14 12:47:00,
2013-07-14 08:52:00,74.7,72.9,30.28,SW,228,5.8,5.8,94,0.00,BKN,,0.00,WeatherDisplay:10.37,2013-07-14 12:52:00,
2013-07-14 08:57:00,74.2,72.4,30.28,SW,230,6.9,6.9,94,0.00,BKN,,0.00,WeatherDisplay:10.37,2013-07-14 12:57:00,
2013-07-14 09:02:00,73.9,72.4,30.28,SW,228,5.8,5.8,95,0.00,BKN,,0.00,WeatherDisplay:10.37,2013-07-14 13:02:00,
2013-07-14 09:07:00,74.1,72.6,30.28,SW,216,8.1,8.1,95,0.00,BKN,,0.00,WeatherDisplay:10.37,2013-07-14 13:07:00,
2013-07-14 09:12:00,73.5,72.0,30.28,SW,218,9.2,9.2,95,0.00,BKN,,0.00,WeatherDisplay:10.37,2013-07-14 13:12:00,
2013-07-14 09:17:00,73.4,71.9,30.28,SW,234,5.8,5.8,95,0.00,BKN,,0.00,WeatherDisplay:10.37,2013-07-14 13:17:00,
2013-07-14 09:22:00,73.3,72.1,30.28,SW,232,6.9,6.9,96,0.00,BKN,,0.00,WeatherDisplay:10.37,2013-07-14 13:22:00,
2013-07-14 09:27:00,73.1,71.9,30.28,SW,222,5.8,5.8,96,0.00,BKN,,0.00,WeatherDisplay:10.37,2013-07-14 13:27:00,
2013-07-14 09:32:00,73.1,71.9,30.28,SW,223,4.6,4.6,96,0.00,BKN,,0.00,WeatherDisplay:10.37,2013-07-14 13:32:00,
2013-07-14 09:37:00,73.2,72.0,30.28,SW,228,6.0,6.0,96,0.00,BKN,,0.00,WeatherDisplay:10.37,2013-07-14 13:37:00,
2013-07-14 09:42:00,73.0,71.8,30.28,SW,219,4.6,4.6,96,0.00,BKN,,0.00,WeatherDisplay:10.37,2013-07-14 13:42:00,
2013-07-14 09:47:00,73.2,72.3,30.28,SW,222,4.0,4.0,97,0.00,BKN,,0.00,WeatherDisplay:10.37,2013-07-14 13:47:00,
2013-07-14 09:52:00,73.6,72.4,30.28,SW,229,5.0,5.0,96,0.00,BKN,,0.00,WeatherDisplay:10.37,2013-07-14 13:52:00,
2013-07-14 09:57:00,73.6,72.4,30.28,SW,223,6.9,6.9,96,0.00,BKN,,0.00,WeatherDisplay:10.37,2013-07-14 13:57:00,
2013-07-14 10:02:00,73.5,72.3,30.28,SSW,208,5.8,5.8,96,0.00,BKN,,0.00,WeatherDisplay:10.37,2013-07-14 14:02:00,
2013-07-14 10:07:00,73.3,72.1,30.28,SW,219,5.0,5.0,96,0.00,BKN,,0.00,WeatherDisplay:10.37,2013-07-14 14:07:00,
2013-07-14 10:12:00,73.3,72.1,30.28,SW,215,8.1,8.1,96,0.00,BKN,,0.00,WeatherDisplay:10.37,2013-07-14 14:12:00,
2013-07-14 10:17:00,73.1,71.9,30.28,SW,225,5.8,5.8,96,0.00,BKN,,0.00,WeatherDisplay:10.37,2013-07-14 14:17:00,
2013-07-14 10:22:00,73.2,72.0,30.28,SW,231,3.5,3.5,96,0.00,BKN,,0.00,WeatherDisplay:10.37,2013-07-14 14:22:00,
2013-07-14 10:27:00,73.3,72.1,30.28,SW,220,5.8,5.8,96,0.00,BKN,,0.00,WeatherDisplay:10.37,2013-07-14 14:27:00,
2013-07-14 10:32:00,73.4,72.2,30.28,SSW,206,5.8,5.8,96,0.00,BKN,,0.00,WeatherDisplay:10.37,2013-07-14 14:32:00,
2013-07-14 10:37:00,73.5,72.3,30.27,SW,224,5.8,5.8,96,0.00,BKN,,0.00,WeatherDisplay:10.37,2013-07-14 14:37:00,
2013-07-14 10:42:00,73.9,72.7,30.28,SW,224,5.8,5.8,96,0.00,BKN,,0.00,WeatherDisplay:10.37,2013-07-14 14:42:00,
2013-07-14 10:47:00,74.4,72.9,30.28,SW,224,5.8,5.8,95,0.00,BKN,,0.00,WeatherDisplay:10.37,2013-07-14 14:47:00,
2013-07-14 10:52:00,74.3,72.8,30.28,SW,215,6.9,6.9,95,0.00,BKN,,0.00,WeatherDisplay:10.37,2013-07-14 14:52:00,
2013-07-14 10:57:00,74.2,72.7,30.28,SW,215,9.2,9.2,95,0.00,BKN,,0.00,WeatherDisplay:10.37,2013-07-14 14:57:00,
2013-07-14 11:02:00,74.4,72.9,30.28,SW,217,8.1,8.1,95,0.00,BKN,,0.00,WeatherDisplay:10.37,2013-07-14 15:02:00,
2013-07-14 11:07:00,74.9,73.4,30.28,SW,224,6.9,6.9,95,0.00,BKN,,0.00,WeatherDisplay:10.37,2013-07-14 15:07:00,
2013-07-14 11:12:00,75.3,73.5,30.28,SW,219,9.2,9.2,94,0.00,BKN,,0.00,WeatherDisplay:10.37,2013-07-14 15:12:00,
2013-07-14 11:17:00,75.3,73.5,30.28,SW,221,9.2,9.2,94,0.00,BKN,,0.00,WeatherDisplay:10.37,2013-07-14 15:17:00,
2013-07-14 11:22:00,75.7,73.5,30.28,SSW,212,9.2,9.2,93,0.00,BKN,,0.00,WeatherDisplay:10.37,2013-07-14 15:22:00,
2013-07-14 11:27:00,75.8,73.6,30.28,SW,232,9.2,9.2,93,0.00,BKN,,0.00,WeatherDisplay:10.37,2013-07-14 15:27:00,
2013-07-14 11:32:00,75.3,73.1,30.27,SW,235,10.4,10.4,93,0.00,BKN,,0.00,WeatherDisplay:10.37,2013-07-14 15:32:00,
2013-07-14 11:37:00,76.0,73.8,30.27,SW,232,6.0,6.0,93,0.00,BKN,,0.00,WeatherDisplay:10.37,2013-07-14 15:37:00,
2013-07-14 11:42:00,76.4,73.9,30.27,SW,219,6.9,6.9,92,0.00,BKN,,0.00,WeatherDisplay:10.37,2013-07-14 15:42:00,
2013-07-14 11:47:00,76.9,74.4,30.27,WSW,238,6.9,6.9,92,0.00,BKN,,0.00,WeatherDisplay:10.37,2013-07-14 15:47:00,
2013-07-14 11:52:00,76.8,74.3,30.27,SW,229,7.0,7.0,92,0.00,BKN,,0.00,WeatherDisplay:10.37,2013-07-14 15:52:00,
2013-07-14 11:57:00,76.5,73.7,30.27,SW,218,10.4,10.4,91,0.00,BKN,,0.00,WeatherDisplay:10.37,2013-07-14 15:57:00,
2013-07-14 12:02:00,76.1,73.6,30.27,SW,223,7.0,7.0,92,0.00,BKN,,0.00,WeatherDisplay:10.37,2013-07-14 16:02:00,
2013-07-14 12:07:00,76.4,73.6,30.27,SW,233,6.9,6.9,91,0.00,BKN,,0.00,WeatherDisplay:10.37,2013-07-14 16:07:00,
2013-07-14 12:12:00,76.2,73.4,30.27,SW,235,9.2,9.2,91,0.00,BKN,,0.00,WeatherDisplay:10.37,2013-07-14 16:12:00,
2013-07-14 12:17:00,76.5,74.0,30.27,SW,233,9.2,9.2,92,0.00,BKN,,0.00,WeatherDisplay:10.37,2013-07-14 16:17:00,
2013-07-14 12:22:00,76.8,74.0,30.27,SW,230,5.8,5.8,91,0.00,BKN,,0.00,WeatherDisplay:10.37,2013-07-14 16:22:00,
2013-07-14 12:27:00,77.0,73.8,30.27,SW,229,6.9,6.9,90,0.00,BKN,,0.00,WeatherDisplay:10.37,2013-07-14 16:27:00,
2013-07-14 12:32:00,77.3,73.8,30.26,SW,233,8.1,8.1,89,0.00,BKN,,0.00,WeatherDisplay:10.37,2013-07-14 16:32:00,
2013-07-14 12:37:00,77.3,73.8,30.26,SW,223,10.4,10.4,89,0.00,BKN,,0.00,WeatherDisplay:10.37,2013-07-14 16:37:00,
2013-07-14 12:42:00,77.0,73.8,30.26,SW,219,6.9,6.9,90,0.00,BKN,,0.00,WeatherDisplay:10.37,2013-07-14 16:42:00,
2013-07-14 12:47:00,77.6,74.1,30.26,WSW,241,6.9,6.9,89,0.00,BKN,,0.00,WeatherDisplay:10.37,2013-07-14 16:47:00,
2013-07-14 12:52:00,77.0,73.5,30.26,SW,225,10.4,10.4,89,0.00,BKN,,0.00,WeatherDisplay:10.37,2013-07-14 16:52:00,
2013-07-14 12:57:00,77.1,73.9,30.26,SW,225,5.8,5.8,90,0.00,BKN,,0.00,WeatherDisplay:10.37,2013-07-14 16:57:00,
2013-07-14 13:02:00,78.1,74.3,30.26,WSW,245,9.2,9.2,88,0.00,FEW,,0.00,WeatherDisplay:10.37,2013-07-14 17:02:00,
2013-07-14 13:07:00,79.3,74.7,30.26,WSW,252,5.0,5.0,86,0.00,FEW,,0.00,WeatherDisplay:10.37,2013-07-14 17:07:00,
2013-07-14 13:12:00,79.4,74.8,30.25,WSW,255,4.0,4.0,86,0.00,FEW,,0.00,WeatherDisplay:10.37,2013-07-14 17:12:00,
2013-07-14 13:17:00,78.4,73.9,30.25,WSW,242,8.1,8.1,86,0.00,FEW,,0.00,WeatherDisplay:10.37,2013-07-14 17:17:00,
2013-07-14 13:22:00,78.2,74.0,30.25,WSW,240,9.2,9.2,87,0.00,FEW,,0.00,WeatherDisplay:10.37,2013-07-14 17:22:00,
2013-07-14 13:27:00,78.3,74.5,30.25,SW,233,3.5,3.5,88,0.00,FEW,,0.00,WeatherDisplay:10.37,2013-07-14 17:27:00,
2013-07-14 13:32:00,79.0,74.1,30.25,WSW,249,9.2,9.2,85,0.00,FEW,,0.00,WeatherDisplay:10.37,2013-07-14 17:32:00,
2013-07-14 13:37:00,78.5,74.3,30.25,SW,230,7.0,7.0,87,0.00,FEW,,0.00,WeatherDisplay:10.37,2013-07-14 17:37:00,
2013-07-14 13:42:00,78.2,74.0,30.25,SW,228,8.1,8.1,87,0.00,FEW,,0.00,WeatherDisplay:10.37,2013-07-14 17:42:00,
2013-07-14 13:47:00,78.4,74.2,30.25,SW,220,10.4,10.4,87,0.00,FEW,,0.00,WeatherDisplay:10.37,2013-07-14 17:47:00,
2013-07-14 13:52:00,78.9,74.4,30.25,WSW,255,11.5,11.5,86,0.00,FEW,,0.00,WeatherDisplay:10.37,2013-07-14 17:52:00,
2013-07-14 13:57:00,78.9,74.4,30.25,WSW,241,9.2,9.2,86,0.00,FEW,,0.00,WeatherDisplay:10.37,2013-07-14 17:57:00,
2013-07-14 14:02:00,79.0,74.5,30.25,WSW,254,10.4,10.4,86,0.00,SCT,,0.00,WeatherDisplay:10.37,2013-07-14 18:02:00,
2013-07-14 14:07:00,78.9,74.4,30.24,WSW,256,10.4,10.4,86,0.00,SCT,,0.00,WeatherDisplay:10.37,2013-07-14 18:07:00,
2013-07-14 14:12:00,79.5,74.9,30.24,WSW,242,6.9,6.9,86,0.00,SCT,,0.00,WeatherDisplay:10.37,2013-07-14 18:12:00,
2013-07-14 14:17:00,79.2,74.6,30.25,SW,225,8.1,8.1,86,0.00,SCT,,0.00,WeatherDisplay:10.37,2013-07-14 18:17:00,
2013-07-14 14:22:00,79.7,74.8,30.24,WSW,247,10.4,10.4,85,0.00,SCT,,0.00,WeatherDisplay:10.37,2013-07-14 18:22:00,
2013-07-14 14:27:00,79.3,74.4,30.24,West,267,11.5,11.5,85,0.00,SCT,,0.00,WeatherDisplay:10.37,2013-07-14 18:27:00,
2013-07-14 14:32:00,79.3,74.4,30.24,WSW,243,10.4,10.4,85,0.00,SCT,,0.00,WeatherDisplay:10.37,2013-07-14 18:32:00,
2013-07-14 14:37:00,79.9,75.0,30.24,SW,223,10.4,10.4,85,0.00,SCT,,0.00,WeatherDisplay:10.37,2013-07-14 18:37:00,
2013-07-14 14:42:00,80.1,75.2,30.24,SW,234,6.9,6.9,85,0.00,SCT,,0.00,WeatherDisplay:10.37,2013-07-14 18:42:00,
2013-07-14 14:47:00,80.4,74.8,30.24,WSW,252,9.2,9.2,83,0.00,SCT,,0.00,WeatherDisplay:10.37,2013-07-14 18:47:00,
2013-07-14 14:52:00,80.4,74.8,30.24,SW,225,8.1,8.1,83,0.00,SCT,,0.00,WeatherDisplay:10.37,2013-07-14 18:52:00,
2013-07-14 14:57:00,80.1,74.8,30.23,WSW,256,8.1,8.1,84,0.00,SCT,,0.00,WeatherDisplay:10.37,2013-07-14 18:57:00,
2013-07-14 15:02:00,79.7,74.4,30.23,WSW,250,10.4,10.4,84,0.00,SCT,,0.00,WeatherDisplay:10.37,2013-07-14 19:02:00,
2013-07-14 15:07:00,79.9,75.0,30.23,West,261,7.0,7.0,85,0.00,SCT,,0.00,WeatherDisplay:10.37,2013-07-14 19:07:00,
2013-07-14 15:12:00,80.1,74.8,30.23,WSW,238,5.0,5.0,84,0.00,SCT,,0.00,WeatherDisplay:10.37,2013-07-14 19:12:00,
2013-07-14 15:17:00,80.1,74.8,30.23,WSW,238,5.0,5.0,84,0.00,SCT,,0.00,WeatherDisplay:10.37,2013-07-14 19:17:00,
2013-07-14 15:22:00,80.1,74.8,30.23,North,0,0.0,0.0,84,0.00,SCT,,0.00,WeatherDisplay:10.37,2013-07-14 19:22:00,
2013-07-14 15:27:00,80.1,74.8,30.22,North,0,0.0,0.0,84,0.00,SCT,,0.00,WeatherDisplay:10.37,2013-07-14 19:27:00,
2013-07-14 15:32:00,80.1,74.8,30.23,North,0,0.0,0.0,84,0.00,SCT,,0.00,WeatherDisplay:10.37,2013-07-14 19:32:00,
2013-07-14 15:37:00,80.1,74.8,30.22,North,0,0.0,0.0,84,0.00,SCT,,0.00,WeatherDisplay:10.37,2013-07-14 19:37:00,
2013-07-14 15:42:00,80.1,74.8,30.22,North,0,0.0,0.0,84,0.00,SCT,,0.00,WeatherDisplay:10.37,2013-07-14 19:42:00,
2013-07-14 15:47:00,80.1,74.8,30.22,North,0,0.0,0.0,84,0.00,SCT,,0.00,WeatherDisplay:10.37,2013-07-14 19:47:00,
2013-07-14 15:52:00,80.1,74.8,30.22,North,0,0.0,0.0,84,0.00,SCT,,0.00,WeatherDisplay:10.37,2013-07-14 19:52:00,
2013-07-14 15:57:00,80.1,74.8,30.22,North,0,0.0,0.0,84,0.00,SCT,,0.00,WeatherDisplay:10.37,2013-07-14 19:57:00,
2013-07-14 16:02:00,80.1,74.8,30.22,North,0,0.0,0.0,84,0.00,SCT,,0.00,WeatherDisplay:10.37,2013-07-14 20:02:00,
2013-07-14 16:07:00,80.1,74.8,30.22,North,0,0.0,0.0,84,0.00,SCT,,0.00,WeatherDisplay:10.37,2013-07-14 20:07:00,
2013-07-14 16:12:00,80.1,74.8,30.21,North,0,0.0,0.0,84,0.00,SCT,,0.00,WeatherDisplay:10.37,2013-07-14 20:12:00,
2013-07-14 16:17:00,80.1,74.8,30.21,North,0,0.0,0.0,84,0.00,SCT,,0.00,WeatherDisplay:10.37,2013-07-14 20:17:00,
2013-07-14 16:22:00,80.1,74.8,30.21,North,0,0.0,0.0,84,0.00,SCT,,0.00,WeatherDisplay:10.37,2013-07-14 20:22:00,
2013-07-14 16:27:00,80.1,74.8,30.21,North,0,0.0,0.0,84,0.00,SCT,,0.00,WeatherDisplay:10.37,2013-07-14 20:27:00,
2013-07-14 16:32:00,80.1,74.8,30.21,North,0,0.0,0.0,84,0.00,SCT,,0.00,WeatherDisplay:10.37,2013-07-14 20:32:00,
2013-07-14 16:37:00,80.1,74.8,30.21,North,0,0.0,0.0,84,0.00,SCT,,0.00,WeatherDisplay:10.37,2013-07-14 20:37:00,
2013-07-14 16:42:00,81.3,74.5,30.21,WSW,257,4.0,4.0,80,0.00,SCT,,0.00,WeatherDisplay:10.37,2013-07-14 20:42:00,
2013-07-14 16:47:00,81.6,74.1,30.21,SW,232,11.5,11.5,78,0.00,SCT,,0.00,WeatherDisplay:10.37,2013-07-14 20:47:00,
2013-07-14 16:52:00,82.3,74.4,30.21,West,261,11.5,11.5,77,0.00,SCT,,0.00,WeatherDisplay:10.37,2013-07-14 20:52:00,
2013-07-14 16:57:00,82.1,74.2,30.21,WSW,254,10.4,10.4,77,0.00,SCT,,0.00,WeatherDisplay:10.37,2013-07-14 20:57:00,
2013-07-14 17:02:00,82.5,74.2,30.20,WSW,257,12.7,12.7,76,0.00,SCT,,0.00,WeatherDisplay:10.37,2013-07-14 21:02:00,
2013-07-14 17:07:00,82.9,74.2,30.20,WSW,258,12.7,12.7,75,0.00,SCT,,0.00,WeatherDisplay:10.37,2013-07-14 21:07:00,
2013-07-14 17:12:00,82.9,74.2,30.20,SW,233,11.5,11.5,75,0.00,SCT,,0.00,WeatherDisplay:10.37,2013-07-14 21:12:00,
2013-07-14 17:17:00,83.1,73.9,30.20,WSW,254,11.5,11.5,74,0.00,SCT,,0.00,WeatherDisplay:10.37,2013-07-14 21:17:00,
2013-07-14 17:22:00,83.0,73.9,30.20,WSW,256,11.5,11.5,74,0.00,SCT,,0.00,WeatherDisplay:10.37,2013-07-14 21:22:00,
2013-07-14 17:27:00,82.9,73.8,30.20,West,260,9.2,9.2,74,0.00,SCT,,0.00,WeatherDisplay:10.37,2013-07-14 21:27:00,
2013-07-14 17:32:00,82.8,74.1,30.19,WSW,240,9.2,9.2,75,0.00,SCT,,0.00,WeatherDisplay:10.37,2013-07-14 21:32:00,
2013-07-14 17:37:00,82.9,74.2,30.19,WSW,251,10.4,10.4,75,0.00,SCT,,0.00,WeatherDisplay:10.37,2013-07-14 21:37:00,
2013-07-14 17:42:00,82.7,74.0,30.19,WSW,249,9.2,9.2,75,0.00,SCT,,0.00,WeatherDisplay:10.37,2013-07-14 21:42:00,
2013-07-14 17:47:00,82.5,73.8,30.20,SW,236,9.2,9.2,75,0.00,SCT,,0.00,WeatherDisplay:10.37,2013-07-14 21:47:00,
2013-07-14 17:52:00,82.5,73.8,30.19,WSW,243,9.2,9.2,75,0.00,SCT,,0.00,WeatherDisplay:10.37,2013-07-14 21:52:00,
2013-07-14 17:57:00,82.3,74.0,30.19,WSW,256,7.0,7.0,76,0.00,SCT,,0.00,WeatherDisplay:10.37,2013-07-14 21:57:00,
2013-07-14 18:02:00,82.1,73.8,30.19,WSW,248,9.2,9.2,76,0.00,SCT,,0.00,WeatherDisplay:10.37,2013-07-14 22:02:00,
2013-07-14 18:07:00,82.0,73.7,30.19,WSW,250,10.4,10.4,76,0.00,SCT,,0.00,WeatherDisplay:10.37,2013-07-14 22:07:00,
2013-07-14 18:12:00,81.7,73.8,30.19,WSW,248,9.2,9.2,77,0.00,SCT,,0.00,WeatherDisplay:10.37,2013-07-14 22:12:00,
2013-07-14 18:17:00,82.0,73.7,30.19,West,266,9.2,9.2,76,0.00,SCT,,0.00,WeatherDisplay:10.37,2013-07-14 22:17:00,
2013-07-14 18:22:00,82.1,73.8,30.19,WSW,256,6.0,6.0,76,0.00,SCT,,0.00,WeatherDisplay:10.37,2013-07-14 22:22:00,
2013-07-14 18:27:00,82.1,73.8,30.19,WSW,254,10.4,10.4,76,0.00,SCT,,0.00,WeatherDisplay:10.37,2013-07-14 22:27:00,
2013-07-14 18:32:00,81.4,73.5,30.19,West,279,10.4,10.4,77,0.00,SCT,,0.00,WeatherDisplay:10.37,2013-07-14 22:32:00,
2013-07-14 18:37:00,81.3,73.8,30.19,West,267,11.5,11.5,78,0.00,SCT,,0.00,WeatherDisplay:10.37,2013-07-14 22:37:00,
2013-07-14 18:42:00,81.4,73.9,30.19,West,265,9.2,9.2,78,0.00,SCT,,0.00,WeatherDisplay:10.37,2013-07-14 22:42:00,
2013-07-14 18:47:00,81.2,73.7,30.19,West,259,6.9,6.9,78,0.00,SCT,,0.00,WeatherDisplay:10.37,2013-07-14 22:47:00,
2013-07-14 18:52:00,81.2,73.7,30.19,West,265,6.9,6.9,78,0.00,SCT,,0.00,WeatherDisplay:10.37,2013-07-14 22:52:00,
2013-07-14 18:57:00,81.3,74.2,30.19,WSW,252,8.0,8.0,79,0.00,SCT,,0.00,WeatherDisplay:10.37,2013-07-14 22:57:00,
2013-07-14 19:02:00,81.6,74.5,30.19,West,268,8.1,8.1,79,0.00,SCT,,0.00,WeatherDisplay:10.37,2013-07-14 23:02:00,
2013-07-14 19:07:00,81.9,74.4,30.19,West,262,6.0,6.0,78,0.00,SCT,,0.00,WeatherDisplay:10.37,2013-07-14 23:07:00,
2013-07-14 19:12:00,81.8,74.6,30.19,WSW,254,5.8,5.8,79,0.00,SCT,,0.00,WeatherDisplay:10.37,2013-07-14 23:12:00,
2013-07-14 19:17:00,81.7,74.5,30.19,West,270,7.0,7.0,79,0.00,SCT,,0.00,WeatherDisplay:10.37,2013-07-14 23:17:00,
2013-07-14 19:22:00,81.8,74.6,30.20,WSW,255,7.0,7.0,79,0.00,SCT,,0.00,WeatherDisplay:10.37,2013-07-14 23:22:00,
2013-07-14 19:27:00,81.6,74.5,30.19,West,268,5.8,5.8,79,0.00,SCT,,0.00,WeatherDisplay:10.37,2013-07-14 23:27:00,
2013-07-14 19:32:00,81.6,74.5,30.19,WSW,254,9.2,9.2,79,0.00,SCT,,0.00,WeatherDisplay:10.37,2013-07-14 23:32:00,
2013-07-14 19:37:00,81.4,74.6,30.20,WSW,258,9.0,9.0,80,0.00,SCT,,0.00,WeatherDisplay:10.37,2013-07-14 23:37:00,
2013-07-14 19:42:00,81.1,74.7,30.19,WSW,254,6.9,6.9,81,0.00,SCT,,0.00,WeatherDisplay:10.37,2013-07-14 23:42:00,
2013-07-14 19:47:00,80.9,74.5,30.19,WSW,256,10.4,10.4,81,0.00,SCT,,0.00,WeatherDisplay:10.37,2013-07-14 23:47:00,
2013-07-14 19:52:00,80.5,74.5,30.19,WSW,248,11.5,11.5,82,0.00,SCT,,0.00,WeatherDisplay:10.37,2013-07-14 23:52:00,
2013-07-14 19:57:00,79.8,74.2,30.19,West,262,10.4,10.4,83,0.00,SCT,,0.00,WeatherDisplay:10.37,2013-07-14 23:57:00,
2013-07-14 20:02:00,79.3,74.0,30.19,West,273,11.5,11.5,84,0.00,-RA,,0.00,WeatherDisplay:10.37,2013-07-15 00:02:00,
2013-07-14 20:07:00,79.2,74.3,30.19,West,260,12.7,12.7,85,0.00,-RA,,0.00,WeatherDisplay:10.37,2013-07-15 00:07:00,
2013-07-14 20:12:00,78.8,73.9,30.19,West,263,12.7,12.7,85,0.00,-RA,,0.00,WeatherDisplay:10.37,2013-07-15 00:12:00,
2013-07-14 20:17:00,78.6,73.7,30.20,West,270,11.5,11.5,85,0.00,-RA,,0.00,WeatherDisplay:10.37,2013-07-15 00:17:00,
2013-07-14 20:22:00,78.4,73.9,30.20,West,273,11.0,11.0,86,0.00,-RA,,0.00,WeatherDisplay:10.37,2013-07-15 00:22:00,
2013-07-14 20:27:00,78.3,73.8,30.19,West,281,11.5,11.5,86,0.00,-RA,,0.00,WeatherDisplay:10.37,2013-07-15 00:27:00,
2013-07-14 20:32:00,78.3,73.8,30.19,West,276,11.5,11.5,86,0.00,-RA,,0.00,WeatherDisplay:10.37,2013-07-15 00:32:00,
2013-07-14 20:37:00,78.2,73.7,30.19,WSW,254,9.2,9.2,86,0.00,-RA,,0.00,WeatherDisplay:10.37,2013-07-15 00:37:00,
2013-07-14 20:42:00,77.9,73.4,30.19,West,260,10.4,10.4,86,0.00,-RA,,0.00,WeatherDisplay:10.37,2013-07-15 00:42:00,
2013-07-14 20:47:00,77.5,73.3,30.19,West,273,9.2,9.2,87,0.00,-RA,,0.00,WeatherDisplay:10.37,2013-07-15 00:47:00,
2013-07-14 20:52:00,77.3,73.1,30.20,West,261,11.5,11.5,87,0.00,-RA,,0.00,WeatherDisplay:10.37,2013-07-15 00:52:00,
2013-07-14 20:57:00,77.1,73.3,30.20,West,261,11.5,11.5,88,0.00,-RA,,0.00,WeatherDisplay:10.37,2013-07-15 00:57:00,
2013-07-14 21:02:00,77.1,73.3,30.20,WSW,246,10.4,10.4,88,0.00,BKN,,0.00,WeatherDisplay:10.37,2013-07-15 01:02:00,
2013-07-14 21:07:00,77.1,73.6,30.20,West,273,14.0,14.0,89,0.00,BKN,,0.00,WeatherDisplay:10.37,2013-07-15 01:07:00,
2013-07-14 21:12:00,77.1,73.6,30.20,West,266,6.9,6.9,89,0.00,BKN,,0.00,WeatherDisplay:10.37,2013-07-15 01:12:00,
2013-07-14 21:17:00,77.1,73.6,30.20,WSW,246,8.1,8.1,89,0.00,BKN,,0.00,WeatherDisplay:10.37,2013-07-15 01:17:00,
2013-07-14 21:22:00,76.9,73.4,30.20,WSW,253,7.0,7.0,89,0.00,BKN,,0.00,WeatherDisplay:10.37,2013-07-15 01:22:00,
2013-07-14 21:27:00,76.9,73.4,30.20,WSW,248,6.0,6.9,89,0.00,BKN,,0.00,WeatherDisplay:10.37,2013-07-15 01:27:00,
2013-07-14 21:32:00,76.8,73.3,30.20,West,268,11.5,11.5,89,0.00,BKN,,0.00,WeatherDisplay:10.37,2013-07-15 01:32:00,
2013-07-14 21:37:00,76.8,73.3,30.21,West,259,6.9,6.9,89,0.00,BKN,,0.00,WeatherDisplay:10.37,2013-07-15 01:37:00,
2013-07-14 21:42:00,76.8,73.3,30.21,West,264,5.8,5.8,89,0.00,BKN,,0.00,WeatherDisplay:10.37,2013-07-15 01:42:00,
2013-07-14 21:47:00,76.9,73.4,30.21,West,259,8.1,8.1,89,0.00,BKN,,0.00,WeatherDisplay:10.37,2013-07-15 01:47:00,
2013-07-14 21:52:00,76.9,73.4,30.21,West,276,6.0,6.0,89,0.00,BKN,,0.00,WeatherDisplay:10.37,2013-07-15 01:52:00,
2013-07-14 21:57:00,76.8,73.3,30.21,SW,235,8.1,8.1,89,0.00,BKN,,0.00,WeatherDisplay:10.37,2013-07-15 01:57:00,
2013-07-14 22:02:00,76.7,73.2,30.20,WSW,248,11.5,11.5,89,0.00,FEW,,0.00,WeatherDisplay:10.37,2013-07-15 02:02:00,
2013-07-14 22:07:00,76.6,73.4,30.21,WSW,242,11.5,11.5,90,0.00,FEW,,0.00,WeatherDisplay:10.37,2013-07-15 02:07:00,
2013-07-14 22:12:00,76.4,73.2,30.21,WSW,252,11.5,11.5,90,0.00,FEW,,0.00,WeatherDisplay:10.37,2013-07-15 02:12:00,
2013-07-14 22:17:00,76.2,73.1,30.20,West,263,10.4,10.4,90,0.00,FEW,,0.00,WeatherDisplay:10.37,2013-07-15 02:17:00,
2013-07-14 22:22:00,76.0,72.9,30.20,WSW,240,10.4,10.4,90,0.00,FEW,,0.00,WeatherDisplay:10.37,2013-07-15 02:22:00,
2013-07-14 22:27:00,75.9,73.1,30.20,SW,235,4.0,4.0,91,0.00,FEW,,0.00,WeatherDisplay:10.37,2013-07-15 02:27:00,
2013-07-14 22:32:00,75.9,73.1,30.20,SW,235,4.0,4.0,91,0.00,FEW,,0.00,WeatherDisplay:10.37,2013-07-15 02:32:00,
2013-07-14 22:37:00,75.9,73.1,30.19,North,0,0.0,0.0,91,0.00,FEW,,0.00,WeatherDisplay:10.37,2013-07-15 02:37:00,
2013-07-14 22:42:00,75.9,73.1,30.19,North,0,0.0,0.0,91,0.00,FEW,,0.00,WeatherDisplay:10.37,2013-07-15 02:42:00,
2013-07-14 22:47:00,75.9,73.1,30.19,North,0,0.0,0.0,91,0.00,FEW,,0.00,WeatherDisplay:10.37,2013-07-15 02:47:00,
2013-07-14 22:52:00,75.8,73.3,30.19,WSW,256,3.5,3.5,92,0.00,FEW,,0.00,WeatherDisplay:10.37,2013-07-15 02:52:00,
2013-07-14 22:57:00,75.7,73.2,30.19,WSW,255,3.5,3.5,92,0.00,FEW,,0.00,WeatherDisplay:10.37,2013-07-15 02:57:00,
2013-07-14 23:02:00,75.5,73.0,30.19,West,259,3.5,3.5,92,0.00,SCT,,0.00,WeatherDisplay:10.37,2013-07-15 03:02:00,
2013-07-14 23:07:00,75.4,72.9,30.19,WNW,294,5.8,5.8,92,0.00,SCT,,0.00,WeatherDisplay:10.37,2013-07-15 03:07:00,
2013-07-14 23:12:00,75.6,73.1,30.19,WNW,284,6.0,6.0,92,0.00,SCT,,0.00,WeatherDisplay:10.37,2013-07-15 03:12:00,
2013-07-14 23:17:00,75.9,73.1,30.19,West,260,6.9,6.9,91,0.00,SCT,,0.00,WeatherDisplay:10.37,2013-07-15 03:17:00,
2013-07-14 23:22:00,76.3,73.1,30.19,WSW,257,8.1,8.1,90,0.00,SCT,,0.00,WeatherDisplay:10.37,2013-07-15 03:22:00,
2013-07-14 23:27:00,76.6,73.1,30.19,WSW,255,4.0,4.0,89,0.00,SCT,,0.00,WeatherDisplay:10.37,2013-07-15 03:27:00,
2013-07-14 23:32:00,76.7,73.2,30.20,West,261,8.1,8.1,89,0.00,SCT,,0.00,WeatherDisplay:10.37,2013-07-15 03:32:00,
2013-07-14 23:37:00,76.9,73.4,30.19,West,264,9.2,9.2,89,0.00,SCT,,0.00,WeatherDisplay:10.37,2013-07-15 03:37:00,
2013-07-14 23:42:00,76.9,73.1,30.19,WSW,254,9.2,9.2,88,0.00,SCT,,0.00,WeatherDisplay:10.37,2013-07-15 03:42:00,
2013-07-14 23:47:00,76.9,73.1,30.20,West,263,12.7,12.7,88,0.00,SCT,,0.00,WeatherDisplay:10.37,2013-07-15 03:47:00,
2013-07-14 23:52:00,77.0,73.5,30.19,West,275,17.3,17.3,89,0.00,SCT,,0.00,WeatherDisplay:10.37,2013-07-15 03:52:00,
2013-07-14 23:57:00,76.7,73.2,30.19,West,274,13.8,13.8,89,0.00,SCT,,0.00,WeatherDisplay:10.37,2013-07-15 03:57:00,